Regional Weather Roundup
Issued by NWS Sioux Falls, SD

Home | Current Version | Previous Version | Graphics & Text | Print | Product List | Glossary On
Versions: 1 2 3 4 5 6 7 8 9 10 11 12 13 14 15 16 17 18 19 20 21 22 23 24 25 26 27 28 29 30 31 32 33 34 35 36 37 38 39 40 41 42 43 44 45 46 47 48 49 50
000
ASUS43 KFSD 220102
RWRFSD

WEATHER ROUNDUP FOR SE SOUTH DAKOTA/SW MINNESOTA/NW IOWA
NATIONAL WEATHER SERVICE SIOUX FALLS SD
700 PM CST SAT JAN 21 2017

NOTE: "FAIR" INDICATES FEW OR NO CLOUDS BELOW 12,000 FEET WITH NO
SIGNIFICANT WEATHER AND OR OBSTRUCTIONS TO VISIBILITY.


SDZ038>040-050-052>070-220200-
SOUTHEAST SOUTH DAKOTA

CITY           SKY/WX    TMP DP  RH WIND       PRES   REMARKS
BROOKINGS      CLOUDY    31  29  92 NW8       29.47R WCI  23
CHAMBERLAIN    CLEAR     31  30  98 CALM      29.52R
HURON          CLOUDY    31  29  92 NW5       29.51R WCI  26
MADISON        CLOUDY    30  30 100 W9          N/A  WCI  22
MITCHELL       CLOUDY    33  30  88 NW10      29.52R WCI  25
SIOUX FALLS    CLOUDY    32  29  88 NW12      29.50R WCI  23
WINNER         FAIR      32  29  88 W7        29.51R WCI  26
YANKTON        CLEAR     30  27  86 W3        29.52R
$$

MNZ071-072-080-081-089-090-097-098-220200-
SOUTHWEST MINNESOTA

CITY           SKY/WX    TMP DP  RH WIND       PRES   REMARKS
FAIRMONT       CLOUDY    34  32  92 W10       29.49R WCI  26
JACKSON        CLOUDY    32  32 100 W10       29.48R FOG     WCI  24
LUVERNE        CLOUDY    30  27  86 W8        29.50R WCI  23
MARSHALL       CLOUDY    34  34 100 NW7       29.48R WCI  28
MONTEVIDEO     FOG       34  34 100 CALM      29.49R VSB 1/2
PIPESTONE      CLOUDY    32  32 100 NW9       29.47R FOG     WCI  24
REDWOOD FALLS  FOG       35  34  96 CALM      29.47R VSB 1/4
TRACY          CLOUDY    35  34  98 W6        29.47R WCI  30
WINDOM         CLOUDY    34  34 100 SW10      29.47R FOG     WCI  26
WORTHINGTON    CLOUDY    31  30  96 W13       29.49R FOG     WCI  21
$$

IAZ001>003-012>014-020>022-031-032-NEZ013-014-SDZ071-220200-
NORTHWEST IOWA

CITY           SKY/WX    TMP DP  RH WIND       PRES   REMARKS
DENISON        CLEAR     36  36 100 CALM      29.49R
ESTHERVILLE    CLOUDY    31  31 100 W9        29.48R WCI  23
LE MARS        CLEAR     32  30  93 NW5       29.53R WCI  27
ORANGE CITY    CLOUDY    32  30  93 W8        29.51R WCI  25
SHELDON        CLOUDY    32  32 100 W12       29.49R WCI  23
SIOUX CITY     CLEAR     32  30  92 N9        29.51R WCI  24
SPENCER          N/A    N/A N/A N/A MISG      29.50R
STORM LAKE     CLEAR     32  32 100 NW8       29.50R WCI  25
$$

ABBREVIATIONS USED IN REMARKS
   TC - TEMPERATURE IN CELSIUS
  WCI - WIND CHILL INDEX
   HX - HEAT INDEX
  VSB - VISIBILITY




USA.gov is the U.S. government's official web portal to all federal, state and local government web resources and services.